TimeEDT,TemperatureF,Dew PointF,Humidity,Sea Level PressureIn,VisibilityMPH,Wind Direction,Wind SpeedMPH,Gust SpeedMPH,PrecipitationIn,Events,Conditions,WindDirDegrees,DateUTC
12:14 AM,60.8,48.2,63,29.95,10.0,North,10.4,-,N/A,,Clear,350,2013-09-13 04:14:00
12:34 AM,59.0,46.4,63,29.95,10.0,North,8.1,-,N/A,,Clear,350,2013-09-13 04:34:00
12:54 AM,59.0,46.4,63,29.95,10.0,NNW,8.1,-,N/A,,Scattered Clouds,340,2013-09-13 04:54:00
1:14 AM,57.2,48.2,72,29.94,10.0,NNW,10.4,-,N/A,,Scattered Clouds,340,2013-09-13 05:14:00
1:34 AM,57.2,46.4,67,29.95,10.0,NNW,10.4,-,N/A,,Scattered Clouds,330,2013-09-13 05:34:00
1:54 AM,57.2,46.4,67,29.95,10.0,NNW,11.5,16.1,N/A,,Scattered Clouds,330,2013-09-13 05:54:00
2:14 AM,57.2,46.4,67,29.95,10.0,NNW,10.4,16.1,N/A,,Mostly Cloudy,330,2013-09-13 06:14:00
2:34 AM,57.2,46.4,67,29.95,10.0,NNW,10.4,16.1,N/A,,Mostly Cloudy,330,2013-09-13 06:34:00
2:54 AM,57.2,44.6,63,29.94,10.0,NNW,12.7,-,N/A,,Mostly Cloudy,330,2013-09-13 06:54:00
3:14 AM,57.2,44.6,63,29.94,10.0,NNW,16.1,20.7,N/A,,Mostly Cloudy,330,2013-09-13 07:14:00
3:35 AM,57.2,44.6,63,29.94,10.0,NW,9.2,19.6,N/A,,Scattered Clouds,320,2013-09-13 07:35:00
3:54 AM,55.4,42.8,63,29.95,10.0,NNW,12.7,-,N/A,,Clear,330,2013-09-13 07:54:00
4:14 AM,55.4,42.8,63,29.95,10.0,NNW,11.5,18.4,N/A,,Clear,330,2013-09-13 08:14:00
4:34 AM,55.4,42.8,63,29.96,10.0,NNW,10.4,-,N/A,,Scattered Clouds,340,2013-09-13 08:34:00
4:54 AM,55.4,42.8,63,29.96,10.0,NNW,11.5,17.3,N/A,,Overcast,340,2013-09-13 08:54:00
5:14 AM,55.4,44.6,67,29.96,10.0,NNW,15.0,18.4,N/A,,Overcast,330,2013-09-13 09:14:00
5:34 AM,55.4,44.6,67,29.97,10.0,NW,10.4,-,N/A,,Overcast,310,2013-09-13 09:34:00
5:54 AM,55.4,44.6,67,29.97,10.0,NNW,13.8,20.7,N/A,,Overcast,330,2013-09-13 09:54:00
6:14 AM,55.4,44.6,67,29.98,10.0,NNW,11.5,19.6,N/A,,Overcast,330,2013-09-13 10:14:00
6:34 AM,55.4,44.6,67,29.98,10.0,NNW,10.4,17.3,N/A,,Mostly Cloudy,340,2013-09-13 10:34:00
6:54 AM,55.4,44.6,67,29.98,10.0,NNW,10.4,18.4,N/A,,Mostly Cloudy,340,2013-09-13 10:54:00
7:14 AM,55.4,46.4,72,29.99,10.0,NNW,8.1,-,N/A,,Overcast,340,2013-09-13 11:14:00
7:34 AM,55.4,46.4,72,29.99,10.0,North,10.4,-,N/A,,Overcast,350,2013-09-13 11:34:00
7:54 AM,55.4,46.4,72,30.00,10.0,North,9.2,-,N/A,,Overcast,360,2013-09-13 11:54:00
8:14 AM,55.4,48.2,77,30.00,10.0,North,9.2,20.7,N/A,,Overcast,360,2013-09-13 12:14:00
8:34 AM,55.4,46.4,72,30.00,10.0,North,9.2,17.3,N/A,,Overcast,360,2013-09-13 12:34:00
8:54 AM,55.4,48.2,77,30.01,10.0,North,11.5,18.4,N/A,,Overcast,350,2013-09-13 12:54:00
9:15 AM,55.4,48.2,77,30.02,10.0,NNW,8.1,16.1,N/A,,Overcast,340,2013-09-13 13:15:00
9:34 AM,55.4,48.2,77,30.02,10.0,North,10.4,-,N/A,,Overcast,350,2013-09-13 13:34:00
9:54 AM,55.4,48.2,77,30.02,10.0,NNW,11.5,17.3,N/A,,Overcast,340,2013-09-13 13:54:00
10:14 AM,55.4,48.2,77,30.03,10.0,NNW,10.4,16.1,N/A,,Overcast,330,2013-09-13 14:14:00
10:34 AM,57.2,48.2,72,30.03,10.0,NNW,13.8,19.6,N/A,,Overcast,340,2013-09-13 14:34:00
10:54 AM,57.2,46.4,67,30.04,10.0,NNW,12.7,19.6,N/A,,Overcast,340,2013-09-13 14:54:00
11:14 AM,57.2,46.4,67,30.04,10.0,North,15.0,18.4,N/A,,Overcast,350,2013-09-13 15:14:00
11:34 AM,57.2,46.4,67,30.05,10.0,North,11.5,20.7,N/A,,Overcast,350,2013-09-13 15:34:00
11:54 AM,57.2,46.4,67,30.06,10.0,North,11.5,20.7,N/A,,Overcast,360,2013-09-13 15:54:00
12:14 PM,57.2,46.4,67,30.06,10.0,North,10.4,17.3,N/A,,Overcast,350,2013-09-13 16:14:00
12:34 PM,59.0,46.4,63,30.06,10.0,North,11.5,16.1,N/A,,Overcast,350,2013-09-13 16:34:00
12:54 PM,59.0,44.6,59,30.06,10.0,North,16.1,19.6,N/A,,Overcast,350,2013-09-13 16:54:00
1:14 PM,60.8,46.4,59,30.05,10.0,NNE,6.9,-,N/A,,Mostly Cloudy,20,2013-09-13 17:14:00
1:34 PM,62.6,44.6,52,30.05,10.0,North,12.7,20.7,N/A,,Mostly Cloudy,350,2013-09-13 17:34:00
1:54 PM,60.8,44.6,55,30.05,10.0,NNW,9.2,-,N/A,,Mostly Cloudy,340,2013-09-13 17:54:00
2:14 PM,59.0,44.6,59,30.05,10.0,North,10.4,-,N/A,,Overcast,360,2013-09-13 18:14:00
2:34 PM,60.8,44.6,55,30.05,10.0,North,11.5,-,N/A,,Overcast,350,2013-09-13 18:34:00
2:54 PM,60.8,42.8,52,30.05,10.0,North,13.8,18.4,N/A,,Overcast,360,2013-09-13 18:54:00
3:14 PM,60.8,42.8,52,30.05,10.0,North,11.5,17.3,N/A,,Overcast,350,2013-09-13 19:14:00
3:34 PM,60.8,42.8,52,30.05,10.0,North,11.5,19.6,N/A,,Mostly Cloudy,350,2013-09-13 19:34:00
3:54 PM,62.6,42.8,48,30.05,10.0,NNW,12.7,19.6,N/A,,Scattered Clouds,330,2013-09-13 19:54:00
4:14 PM,60.8,42.8,52,30.05,10.0,North,12.7,-,N/A,,Mostly Cloudy,350,2013-09-13 20:14:00
4:34 PM,60.8,42.8,52,30.05,10.0,North,12.7,23.0,N/A,,Scattered Clouds,350,2013-09-13 20:34:00
4:54 PM,62.6,42.8,48,30.05,10.0,NNW,13.8,-,N/A,,Scattered Clouds,330,2013-09-13 20:54:00
5:14 PM,60.8,42.8,52,30.06,10.0,North,11.5,19.6,N/A,,Mostly Cloudy,10,2013-09-13 21:14:00
5:34 PM,60.8,41.0,48,30.06,10.0,North,11.5,19.6,N/A,,Mostly Cloudy,360,2013-09-13 21:34:00
5:54 PM,59.0,39.2,48,30.06,10.0,North,11.5,21.9,N/A,,Scattered Clouds,10,2013-09-13 21:54:00
6:14 PM,59.0,39.2,48,30.06,10.0,North,16.1,19.6,N/A,,Scattered Clouds,360,2013-09-13 22:14:00
6:34 PM,59.0,39.2,48,30.07,10.0,North,16.1,-,N/A,,Scattered Clouds,360,2013-09-13 22:34:00
6:54 PM,57.2,39.2,51,30.08,10.0,North,10.4,18.4,N/A,,Clear,350,2013-09-13 22:54:00
7:14 PM,57.2,37.4,48,30.08,10.0,NNW,9.2,-,N/A,,Clear,340,2013-09-13 23:14:00
7:34 PM,55.4,37.4,51,30.09,10.0,North,5.8,9.2,N/A,,Clear,10,2013-09-13 23:34:00
7:54 PM,55.4,37.4,51,30.09,10.0,North,6.9,-,N/A,,Clear,350,2013-09-13 23:54:00
8:14 PM,55.4,37.4,51,30.10,10.0,North,8.1,-,N/A,,Clear,10,2013-09-14 00:14:00
8:34 PM,53.6,37.4,54,30.11,10.0,North,8.1,-,N/A,,Clear,360,2013-09-14 00:34:00
8:54 PM,53.6,37.4,54,30.11,10.0,North,6.9,-,N/A,,Clear,10,2013-09-14 00:54:00
9:14 PM,53.6,37.4,54,30.12,10.0,NNE,5.8,-,N/A,,Clear,20,2013-09-14 01:14:00
9:34 PM,51.8,39.2,62,30.12,10.0,NNE,4.6,-,N/A,,Clear,20,2013-09-14 01:34:00
9:54 PM,51.8,39.2,62,30.13,10.0,NNE,6.9,-,N/A,,Clear,20,2013-09-14 01:54:00
10:15 PM,51.8,39.2,62,30.13,10.0,NNE,5.8,-,N/A,,Clear,20,2013-09-14 02:15:00
10:34 PM,51.8,39.2,62,30.13,10.0,NE,8.1,-,N/A,,Clear,40,2013-09-14 02:34:00
10:54 PM,51.8,39.2,62,30.13,10.0,NNE,5.8,-,N/A,,Clear,30,2013-09-14 02:54:00
11:14 PM,51.8,39.2,62,30.13,10.0,North,3.5,-,N/A,,Clear,360,2013-09-14 03:14:00
11:34 PM,50.0,39.2,66,30.13,10.0,North,4.6,-,N/A,,Clear,360,2013-09-14 03:34:00
11:55 PM,48.2,39.2,71,30.13,10.0,NNW,3.5,-,N/A,,Clear,340,2013-09-14 03:55:00